This demonstration page uses our WeatherBlox Daily Observations layout. Learn more.

Hourly Observations for August 12, 2020

Temp ( °F °C ) Dew Point ( °F °C ) Humidity (%) Winds ( mph kmh ) Pressure ( in mb ) Visibility ( mi km ) Precip ( " mm )
12:51 am 00:51 Clear 89 31.7 54 12.2 30 30 WNW 18 30 29.77 1008 10 16.0934 0 0
1:51 am 01:51 Clear 88 31.1 54 12.2 31 31 NW 14 22 29.76 1008 10 16.0934 0 0
2:51 am 02:51 Clear 86 30 53 11.7 32 32 NW 9 15 29.77 1008 10 16.0934 0 0
3:51 am 03:51 Clear 85 29.4 54 12.2 35 35 NW 8 13 29.75 1007 10 16.0934 0 0
4:51 am 04:51 Clear 83 28.3 55 12.8 38 38 W 10 17 29.78 1008 10 16.0934 0 0
5:51 am 05:51 Sunny 81 27.2 55 12.8 41 41 NNW 5 7 29.8 1009 10 16.0934 0 0
6:51 am 06:51 Sunny 85 29.4 55 12.8 36 36 S 5 7 29.81 1010 10 16.0934 0 0
7:51 am 07:51 Sunny 89 31.7 56 13.3 33 33 VRB 7 11 29.82 1010 10 16.0934 0 0
8:51 am 08:51 Sunny 94 34.4 55 12.8 27 27 WNW 15 24 29.81 1010 10 16.0934 0 0
9:51 am 09:51 Sunny 95 35 54 12.2 25 25 NW 10 17 29.81 1010 10 16.0934 0 0
10:51 am 10:51 Sunny 98 36.7 53 11.7 22 22 W 9 15 29.8 1009 10 16.0934 0 0
11:51 am 11:51 Sunny 98 36.7 52 11.1 21 21 W 8 13 29.78 1009 10 16.0934 0 0
12:51 pm 12:51 Sunny 103 39.4 51 10.6 18 18 W 12 19 29.75 1008 10 16.0934 0 0
1:51 pm 13:51 Sunny 104 40 50 10 16 16 WNW 13 20 29.73 1007 10 16.0934 0 0
2:51 pm 14:51 Sunny 103 39.4 50 10 17 17 WNW 10 17 29.72 1006 10 16.0934 0 0
3:51 pm 15:51 Sunny 105 40.6 49 9.4 15 15 NNW 14 22 29.69 1006 10 16.0934 0 0
4:51 pm 16:51 Sunny 102 38.9 49 9.4 17 17 NW 6 9 29.69 1006 10 16.0934 0 0
5:51 pm 17:51 Sunny 100 37.8 50 10 18 18 W 14 22 29.7 1006 10 16.0934 0 0
6:51 pm 18:51 Sunny 99 37.2 49 9.4 18 18 NW 9 15 29.71 1006 10 16.0934 0 0
7:51 pm 19:51 Mostly Clear 95 35 51 10.6 23 23 E 15 24 29.74 1007 10 16.0934 0 0
8:34 pm 20:34 Mostly Clear with Nearby Thunderstorms 93 33.9 53 11.7 26 26 ESE 17 28 29.7 1006 10 16.0934 0 0
8:51 pm 20:51 Mostly Cloudy 94 34.4 52 11.1 24 24 E 12 19 29.79 1009 10 16.0934 0 0
9:51 pm 21:51 Mostly Cloudy 91 32.8 54 12.2 28 28 NE 10 17 29.8 1009 10 16.0934 0 0
10:51 pm 22:51 Clear 89 31.7 53 11.7 29 29 NE 5 7 29.79 1009 10 16.0934 0 0
11:51 pm 23:51 Clear 90 32.2 52 11.1 27 27 E 6 9 29.79 1009 10 16.0934 0 0

Powered by AerisWeather